Flag for U.S.A. Weather past 2 weeks in Cleveland, Tennessee, U.S.A.

Now
74 °F

Passing clouds.


Feels Like: 76 °F
Forecast: 48 / 70 °F
Wind: 12 mph from Northeast

Location: Lovell Field


UV Index: 7 (High)

Visibility: 10 mi


Pressure: 29.94 "Hg

Humidity: 24%

Dew point: 35 °F

Location of ClevelandLocation

Historic Weather in Cleveland

°F

Cleveland temperature yesterday

Maximum temperature yesterday: 73 °F (at 1:53 PM)
Minimum temperature yesterday: 57 °F (at 2:53 AM)
Average temperature yesterday: 65 °F

Past Weeks' High & Low Weather Summary

 TemperatureHumidityPressure
High81 °F (Apr 12, 4:53 PM)97% (Apr 12, 5:53 AM)30.42 "Hg (Apr 12, 5:53 AM)
Low36 °F (Apr 16, 5:53 AM)19% (Apr 16, 6:53 PM)29.71 "Hg (Apr 8, 4:53 PM)
Average60 °F57%30.08 "Hg
* Reported Apr 8 2:53 PM — Apr 23 2:53 PM, Cleveland, Weather by CustomWeather, © 2014

Note: Actual official high and low records may vary slightly from our data, if they occured in-between our weather recording intervals... More about our weather records

Advertising

Historic Weather Conditions — Data for Previous 24 hours

 ConditionsComfort  
Time TempWeatherWind HumidityBarometerVisibility
2:53 PM
Apr 23
72 °FPassing clouds.9 mph26%29.96 "Hg10 mi
1:53 PM70 °FSunny.9 mph29%29.99 "Hg10 mi
12:53 PM67 °FSunny.9 mph32%30.01 "Hg10 mi
11:53 AM64 °FSunny.7 mph34%30.03 "Hg10 mi
10:53 AM62 °FSunny.14 mph38%30.03 "Hg10 mi
9:53 AM59 °FSunny.10 mph41%30.02 "Hg10 mi
8:53 AM56 °FSunny.17 mph46%30.01 "Hg10 mi
7:53 AM53 °FPassing clouds.3 mph52%29.98 "Hg10 mi
6:53 AM50 °FPassing clouds.No wind74%29.94 "Hg10 mi
5:53 AM53 °FClear.7 mph59%29.92 "Hg10 mi
4:53 AM53 °FClear.5 mph69%29.91 "Hg10 mi
3:53 AM56 °FClear.5 mph67%29.89 "Hg10 mi
2:53 AM58 °FClear.6 mph62%29.89 "Hg10 mi
1:53 AM61 °FClear.5 mph58%29.89 "Hg10 mi
12:53 AM63 °FClear.8 mph60%29.88 "Hg10 mi
11:53 PM
Apr 22
64 °FClear.7 mph68%29.88 "Hg10 mi
10:53 PM61 °FFog.No wind93%29.87 "Hg10 mi
9:53 PM64 °FFog.No wind90%29.85 "Hg10 mi
8:53 PM66 °FScattered clouds.No wind84%29.83 "Hg10 mi
7:53 PM71 °FScattered clouds.No wind71%29.80 "Hg10 mi
6:53 PM72 °FScattered clouds.3 mph66%29.80 "Hg10 mi
5:53 PM71 °FBroken clouds.No wind68%29.81 "Hg10 mi
4:53 PM70 °FPartly sunny.No wind76%29.82 "Hg10 mi
Weather by CustomWeather, © 2014

See weather overview